P/2002 CW134 ( LINEAR ) 2009

Japanese version
Home page
Total 6,336 html files since Dec. 4, 1995
Updated on October 15, 2008

---------------------------------------------------------------------

* Profile

* Orbital Elements

The following orbital elements are taken from MPC 56802:

Epoch 2009 Jan. 9.0 TT = JDT 2454840.5
T 2009 Jan. 5.9262 TT                                   MPC
q   1.843775             (2000.0)            P               Q
n   0.1439103      Peri.  190.2672      -0.9983984      -0.0186918
a   3.606407       Node   348.2596      +0.0478046      -0.7834857
e   0.488750       Incl.   15.2139      -0.0302551      -0.6211286
P   6.85
From 106 observations 2002 Feb. 7-May 12, mean residual 0".6.

* Magnitudes Graph

        m1 = 15.5 + 5 log d + 10.0 log r

---------------------------------------------------------------------

The orbital elements are published at the MPC Ephemerides and Orbital Elements.
The magnitudes graphs are made with Comet for Windows.

---------------------------------------------------------------------

Copyright(C) 1995-2008 Seiichi Yoshida (comet@aerith.net). All rights reserved.